Location: Janeiro
(34.9957°N, 76.7652°W)
Time: 12:43:00
(UTC+00:00)

Cosmos 405 Rocket - Pass Details

Date: 14 December 2019
Orbit: 490 x 554 km, 81.3° (Epoch: 26 January)

Event Time Altitude Azimuth Distance (km) Brightness Sun altitude
Rises 23:23:33 0° 357° (N) 2,576 6.1 -17.3°
Enters shadow 23:25:17 - 2° (N) 1,868 5.3 -17.6°
Exits shadow 23:28:48 46° 49° (NE) 678 2.8 -18.3°
Maximum altitude 23:29:19 50° 80° (E) 638 2.7 -18.4°
Drops below altitude 10° 23:32:58 10° 157° (SSE) 1,706 5.2 -19.2°
Sets 23:35:08 0° 162° (SSE) 2,595 6.2 -19.6°
